Hourly Weather Holuby

Today, 16 April, Friday

Time Temperature Precipitation Wind Pressure Humidity
00:00 +8°C° 0.3 mm 3 mps 749 mmHg 88%
01:00 +7°C° 0.3 mm 3 mps 749 mmHg 90%
02:00 +7°C° 0 mm 3 mps 749 mmHg 91%
03:00 +7°C° 0.2 mm 3 mps 749 mmHg 92%
04:00 +7°C° 0.2 mm 3 mps 749 mmHg 93%
05:00 +7°C° 0.2 mm 3 mps 749 mmHg 94%
06:00 +7°C° 0.1 mm 3 mps 749 mmHg 90%
07:00 +7°C° 0.1 mm 4 mps 750 mmHg 86%
08:00 +8°C° 0 mm 4 mps 750 mmHg 83%
09:00 +8°C° 0.2 mm 5 mps 750 mmHg 80%
10:00 +9°C° 0.2 mm 5 mps 750 mmHg 78%
11:00 +9°C° 0.2 mm 6 mps 750 mmHg 75%
12:00 +9°C° 0.2 mm 6 mps 751 mmHg 76%
13:00 +8°C° 0.2 mm 6 mps 751 mmHg 76%
14:00 +8°C° 0.2 mm 6 mps 751 mmHg 76%
15:00 +8°C° 0.2 mm 5 mps 751 mmHg 72%
16:00 +10°C° 0.2 mm 4 mps 751 mmHg 68%
17:00 +10°C° 0.2 mm 4 mps 751 mmHg 64%
18:00 +8°C° 0.4 mm 4 mps 751 mmHg 70%
19:00 +8°C° 0.4 mm 3 mps 751 mmHg 76%
20:00 +5°C° 0.4 mm 3 mps 752 mmHg 82%
21:00 +5°C° 0 mm 3 mps 752 mmHg 82%
22:00 +4°C° 0 mm 3 mps 752 mmHg 83%
23:00 +4°C° 0 mm 3 mps 752 mmHg 83%

Tomorrow, 17 April, Saturday

Time Temperature Precipitation Wind Pressure Humidity
00:00 +4°C° 0.1 mm 3 mps 752 mmHg 85%
01:00 +4°C° 0.1 mm 3 mps 752 mmHg 87%
02:00 +4°C° 0.1 mm 3 mps 753 mmHg 88%
03:00 +4°C° 0.1 mm 3 mps 753 mmHg 90%
04:00 +4°C° 0.1 mm 3 mps 753 mmHg 92%
05:00 +4°C° 0.1 mm 3 mps 753 mmHg 94%
06:00 +4°C° 0.1 mm 3 mps 753 mmHg 93%
07:00 +4°C° 0.1 mm 3 mps 753 mmHg 91%
08:00 +4°C° 0.1 mm 4 mps 754 mmHg 89%
09:00 +5°C° 0.1 mm 4 mps 754 mmHg 87%
10:00 +5°C° 0.1 mm 4 mps 754 mmHg 85%
11:00 +5°C° 0.1 mm 4 mps 755 mmHg 83%
12:00 +5°C° 0 mm 4 mps 755 mmHg 83%
13:00 +5°C° 0 mm 4 mps 755 mmHg 84%
14:00 +5°C° 0 mm 4 mps 755 mmHg 84%
15:00 +6°C° 0 mm 4 mps 755 mmHg 82%
16:00 +7°C° 0 mm 3 mps 755 mmHg 80%
17:00 +7°C° 0 mm 3 mps 755 mmHg 77%
18:00 +7°C° 0 mm 2 mps 755 mmHg 80%
19:00 +7°C° 0 mm 2 mps 755 mmHg 82%
20:00 +6°C° 0 mm 2 mps 755 mmHg 84%
21:00 +6°C° 0 mm 2 mps 755 mmHg 85%
22:00 +6°C° 0 mm 2 mps 755 mmHg 86%
23:00 +6°C° 0 mm 2 mps 755 mmHg 86%

Day after tomorrow, 18 April, Sunday

Time Temperature Precipitation Wind Pressure Humidity
00:00 +5°C° 0 mm 2 mps 755 mmHg 87%
01:00 +5°C° 0 mm 2 mps 755 mmHg 87%
02:00 +5°C° 0 mm 2 mps 755 mmHg 88%
03:00 +5°C° 0 mm 2 mps 755 mmHg 87%
04:00 +5°C° 0 mm 2 mps 754 mmHg 86%
05:00 +5°C° 0 mm 2 mps 754 mmHg 85%
06:00 +6°C° 0 mm 2 mps 754 mmHg 82%
07:00 +7°C° 0 mm 2 mps 754 mmHg 78%
08:00 +7°C° 0 mm 3 mps 754 mmHg 75%
09:00 +9°C° 0 mm 3 mps 754 mmHg 69%
10:00 +11°C° 0 mm 4 mps 754 mmHg 63%
11:00 +12°C° 0 mm 5 mps 754 mmHg 58%
12:00 +13°C° 0 mm 5 mps 753 mmHg 55%
13:00 +13°C° 0 mm 4 mps 753 mmHg 52%
14:00 +14°C° 0 mm 4 mps 753 mmHg 49%
15:00 +14°C° 0 mm 4 mps 753 mmHg 52%
16:00 +13°C° 0 mm 3 mps 753 mmHg 54%
17:00 +14°C° 0 mm 2 mps 753 mmHg 57%
18:00 +13°C° 0 mm 2 mps 753 mmHg 58%
19:00 +13°C° 0 mm 2 mps 753 mmHg 59%
20:00 +12°C° 0 mm 2 mps 753 mmHg 60%
21:00 +12°C° 0 mm 2 mps 753 mmHg 64%
22:00 +10°C° 0 mm 2 mps 753 mmHg 67%
23:00 +9°C° 0 mm 2 mps 753 mmHg 70%

19 April, Monday

Time Temperature Precipitation Wind Pressure Humidity
00:00 +9°C° 0 mm 2 mps 753 mmHg 73%
01:00 +9°C° 0 mm 1 mps 752 mmHg 76%
02:00 +9°C° 0 mm 1 mps 752 mmHg 78%
03:00 +8°C° 0 mm 1 mps 752 mmHg 79%
04:00 +8°C° 0 mm 1 mps 752 mmHg 79%
05:00 +7°C° 0 mm 2 mps 752 mmHg 80%
06:00 +8°C° 0 mm 2 mps 752 mmHg 75%
07:00 +9°C° 0 mm 2 mps 752 mmHg 71%
08:00 +10°C° 0 mm 2 mps 752 mmHg 67%
09:00 +12°C° 0 mm 2 mps 752 mmHg 63%
10:00 +14°C° 0 mm 2 mps 752 mmHg 58%
11:00 +14°C° 0 mm 3 mps 751 mmHg 54%
12:00 +13°C° 0.1 mm 3 mps 751 mmHg 57%
13:00 +13°C° 0.1 mm 4 mps 751 mmHg 61%
14:00 +13°C° 0.1 mm 5 mps 750 mmHg 65%
15:00 +12°C° 0 mm 5 mps 750 mmHg 69%
16:00 +10°C° 0 mm 5 mps 750 mmHg 74%
17:00 +10°C° 0 mm 5 mps 749 mmHg 78%
18:00 +10°C° 0 mm 4 mps 749 mmHg 81%
19:00 +10°C° 0 mm 4 mps 748 mmHg 83%
20:00 +8°C° 0 mm 4 mps 748 mmHg 86%
21:00 +8°C° 0 mm 4 mps 747 mmHg 87%
22:00 +8°C° 0 mm 4 mps 746 mmHg 88%
23:00 +8°C° 0 mm 4 mps 746 mmHg 89%

20 April, Tuesday

Time Temperature Precipitation Wind Pressure Humidity
00:00 +8°C° 0.6 mm 4 mps 744 mmHg 91%
01:00 +8°C° 0.6 mm 4 mps 743 mmHg 93%
02:00 +8°C° 0.6 mm 5 mps 742 mmHg 95%
03:00 +8°C° 2.1 mm 4 mps 741 mmHg 96%
04:00 +8°C° 2.1 mm 4 mps 740 mmHg 97%
05:00 +8°C° 2.1 mm 4 mps 739 mmHg 97%
06:00 +8°C° 0.9 mm 4 mps 738 mmHg 97%
07:00 +10°C° 0.9 mm 3 mps 737 mmHg 97%
08:00 +10°C° 0.9 mm 3 mps 737 mmHg 97%
09:00 +11°C° 0.4 mm 4 mps 737 mmHg 91%
10:00 +12°C° 0.4 mm 4 mps 736 mmHg 85%
11:00 +13°C° 0.4 mm 5 mps 736 mmHg 79%
12:00 +11°C° 0.3 mm 6 mps 737 mmHg 77%
13:00 +11°C° 0.3 mm 6 mps 737 mmHg 75%
14:00 +10°C° 0.3 mm 7 mps 737 mmHg 74%
15:00 +10°C° 0.1 mm 6 mps 737 mmHg 77%
16:00 +9°C° 0.1 mm 6 mps 737 mmHg 80%
17:00 +9°C° 0.1 mm 5 mps 738 mmHg 83%
18:00 +8°C° 0.1 mm 5 mps 739 mmHg 84%
19:00 +8°C° 0.1 mm 6 mps 740 mmHg 85%
20:00 +7°C° 0.1 mm 6 mps 741 mmHg 87%
21:00 +7°C° 0.1 mm 6 mps 741 mmHg 85%
22:00 +7°C° 0.1 mm 6 mps 742 mmHg 84%
23:00 +7°C° 0.1 mm 6 mps 743 mmHg 82%

21 April, Wednesday

Time Temperature Precipitation Wind Pressure Humidity
00:00 +7°C° 0 mm 6 mps 744 mmHg 82%
01:00 +6°C° 0 mm 5 mps 745 mmHg 82%
02:00 +5°C° 0 mm 5 mps 746 mmHg 82%
03:00 +5°C° 0 mm 5 mps 747 mmHg 84%
04:00 +5°C° 0 mm 5 mps 747 mmHg 86%
05:00 +3°C° 0 mm 5 mps 748 mmHg 88%
06:00 +6°C° 0 mm 5 mps 748 mmHg 82%
07:00 +7°C° 0 mm 6 mps 749 mmHg 76%
08:00 +9°C° 0 mm 6 mps 749 mmHg 70%
09:00 +10°C° 0 mm 6 mps 750 mmHg 64%
10:00 +11°C° 0 mm 7 mps 750 mmHg 58%
11:00 +14°C° 0 mm 7 mps 750 mmHg 53%
12:00 +14°C° 0.1 mm 7 mps 751 mmHg 52%
13:00 +14°C° 0.1 mm 7 mps 751 mmHg 52%
14:00 +14°C° 0.1 mm 6 mps 751 mmHg 52%
15:00 +14°C° 0.1 mm 5 mps 751 mmHg 56%
16:00 +13°C° 0.1 mm 4 mps 752 mmHg 60%
17:00 +13°C° 0.1 mm 3 mps 752 mmHg 64%
18:00 +12°C° 0.3 mm 3 mps 752 mmHg 71%
19:00 +12°C° 0.3 mm 2 mps 753 mmHg 77%
20:00 +10°C° 0.3 mm 2 mps 753 mmHg 83%
21:00 +9°C° 0.2 mm 2 mps 754 mmHg 85%
22:00 +9°C° 0.2 mm 2 mps 754 mmHg 88%
23:00 +9°C° 0.2 mm 2 mps 754 mmHg 90%
Show more